PROFILE

 METAR AND TAF INFORMATION
ADDS - METARS form results

(0022 UTC 13 November 2018)
http://aviationweather.gov/metar/data/
 
LFMN 130000Z 02008KT 9999 SCT066 BKN200 17/12 Q1026 NOSIG
LFMN 122330Z 36005KT 330V030 9999 SCT066 BKN200 16/12 Q1026 NOSIG
TAF LFMN 122000Z 1221/1403 34010KT 9999 FEW030 SCT250 BECMG 1309/1311 15005KT TEMPO 1314/1403 BKN014 BECMG 1317/1319 34010KT 

 AIRPORT MAP

 RUNWAY INFORMATION
Runway 04L Runway length 8995 ft Runway width 148 ft
Runway elevation 10 ft Runway displaced threshold 0 ft Runway heading 45
Runway 22R Runway length 8995 ft Runway width 148 ft
Runway elevation 10 ft Runway displaced threshold 575 ft Runway heading 225
Runway 04R Runway length 9712 ft Runway width 148 ft
Runway elevation 10 ft Runway displaced threshold 0 ft Runway heading 45
Runway 22L Runway length 9712 ft Runway width 148 ft
Runway elevation 12 ft Runway displaced threshold 0 ft Runway heading 225

 AIRPORT FREQUENCIES
Type A/D Name NICE APP Frequency 124.175 MHZ
Type ATIS Name NICE ATIS Frequency 129.6 MHZ
Type GND Name NICE GND Frequency 121.775 MHZ
Type TWR Name NICE TWR Frequency 118.7 MHZ

 AIRPORT NEAR NAVIGATION AIDS
Type VOR-DME Name Nice Cote D Azur Frequency 109650 KHZ
Type VOR-DME Name Cagnes Sur Mer Frequency 109200 KHZ
Type NDB Name Nice Frequency 399 KHZ
Type VOR-DME Name Nice Frequency 112400 KHZ